This is the latest recevied weather packets stored in our database for station/object K1TTC. If no packets are shown the sender has not sent any weather packets the latest 10 day(s).
| Time | Temp. | Humidity | Pressure | Rain* | Wind** | Luminosity | Snow |
|---|---|---|---|---|---|---|---|
| 1777851089 | 10.56° C | 34% | 1009.3 hPa | 0 mm | - | 14 W/m² | - |
| 1777850483 | 11.11° C | 33% | 1009.1 hPa | 0 mm | - | 14 W/m² | - |
| 1777849882 | 11.11° C | 33% | 1009 hPa | 0 mm | - | 26 W/m² | - |
| 1777849282 | 11.11° C | 33% | 1008.9 hPa | 0 mm | - | 23 W/m² | - |
| 1777848685 | 11.11° C | 33% | 1008.9 hPa | 0 mm | - | 35 W/m² | - |
| 1777848079 | 11.11° C | 33% | 1008.8 hPa | 0 mm | - | 35 W/m² | - |
| 1777847551 | 11.11° C | 32% | 1008.5 hPa | 0 mm | - | 83 W/m² | - |
| 1777846877 | 11.67° C | 33% | 1008.4 hPa | 0 mm | - | 70 W/m² | - |
| 1777846277 | 11.11° C | 33% | 1008.4 hPa | 0 mm | - | 132 W/m² | - |
| 1777845677 | 11.11° C | 33% | 1008.4 hPa | 0 mm | - | 83 W/m² | - |
| 1777845078 | 11.67° C | 32% | 1008.2 hPa | 0 mm | - | 88 W/m² | - |
| 1777844477 | 11.67° C | 31% | 1008.2 hPa | 0 mm | - | 146 W/m² | - |
| 1777843955 | 11.67° C | 32% | 1008.2 hPa | 0 mm | - | 374 W/m² | - |
| 1777843279 | 11.67° C | 32% | 1008 hPa | 0 mm | - | 146 W/m² | - |
| 1777842759 | 11.67° C | 32% | 1007.8 hPa | 0 mm | - | 158 W/m² | - |
| 1777842076 | 11.67° C | 33% | 1007.7 hPa | 0 mm | - | 118 W/m² | - |
| 1777841476 | 11.67° C | 31% | 1007.6 hPa | 0 mm | - | 109 W/m² | - |
| 1777840877 | 11.67° C | 32% | 1007.5 hPa | 0 mm | - | 149 W/m² | - |
| 1777840352 | 12.22° C | 31% | 1007.4 hPa | 0 mm | - | 156 W/m² | - |
| 1777839676 | 11.67° C | 31% | 1007.3 hPa | 0 mm | - | 255 W/m² | - |
| 1777839076 | 11.67° C | 32% | 1007.2 hPa | 0 mm | - | 227 W/m² | - |
| 1777838477 | 12.22° C | 35% | 1007.1 hPa | 0 mm | - | 171 W/m² | - |
| 1777837873 | 11.67° C | 36% | 1007.1 hPa | 0 mm | - | 251 W/m² | - |
| 1777837273 | 11.67° C | 34% | 1007.1 hPa | 0 mm | - | 265 W/m² | - |
| 1777836673 | 11.67° C | 34% | 1007.2 hPa | 0 mm | - | 227 W/m² | - |
* Rain latest hour (hover to see other rain measurements)
** Current wind speed in m/s (hover to see current wind gust speed)